When you browse on this site, cookies collect data to enhance your experience and personalize the content and advertising you see.
Visit our Privacy Policy to learn more. By continuing to use the site, you agree to this use of cookies and data.
  • In Switzerland
  • List of Countries
  • For 7 days
  • Water Temperature
  • Satellite Maps
  • Weather Map
  • Weather Widgets
  • user-avatar
    Login

    Hourly Weather Hobart

    Today, 22 May, Wednesday

    Time Temperature Precipitation Wind Pressure Humidity
    00:00 +13°C° 0 mm 2 mps 750 mmHg 80%
    01:00 +13°C° 0 mm 2 mps 751 mmHg 82%
    02:00 +12°C° 0 mm 2 mps 751 mmHg 83%
    03:00 +12°C° 0 mm 2 mps 751 mmHg 84%
    04:00 +11°C° 0 mm 1 mps 751 mmHg 85%
    05:00 +11°C° 0 mm 1 mps 751 mmHg 85%
    06:00 +9°C° 0 mm 2 mps 752 mmHg 86%
    07:00 +9°C° 0 mm 2 mps 752 mmHg 86%
    08:00 +10°C° 0 mm 2 mps 753 mmHg 79%
    09:00 +11°C° 0 mm 3 mps 753 mmHg 73%
    10:00 +12°C° 0 mm 3 mps 753 mmHg 66%
    11:00 +13°C° 0 mm 3 mps 753 mmHg 64%
    12:00 +13°C° 0 mm 3 mps 753 mmHg 61%
    13:00 +14°C° 0 mm 3 mps 753 mmHg 59%
    14:00 +14°C° 0 mm 3 mps 753 mmHg 59%
    15:00 +14°C° 0 mm 3 mps 753 mmHg 60%
    16:00 +13°C° 0 mm 3 mps 753 mmHg 61%
    17:00 +12°C° 0 mm 3 mps 754 mmHg 67%
    18:00 +11°C° 0 mm 3 mps 754 mmHg 73%
    19:00 +9°C° 0 mm 3 mps 754 mmHg 80%
    20:00 +9°C° 0 mm 3 mps 754 mmHg 80%
    21:00 +9°C° 0 mm 3 mps 754 mmHg 80%
    22:00 +9°C° 0 mm 3 mps 755 mmHg 80%
    23:00 +9°C° 0 mm 3 mps 754 mmHg 79%

    Tomorrow, 23 May, Thursday

    Time Temperature Precipitation Wind Pressure Humidity
    00:00 +9°C° 0 mm 3 mps 754 mmHg 79%
    01:00 +9°C° 0 mm 3 mps 754 mmHg 78%
    02:00 +8°C° 0 mm 3 mps 753 mmHg 79%
    03:00 +8°C° 0 mm 3 mps 753 mmHg 80%
    04:00 +8°C° 0 mm 3 mps 753 mmHg 82%
    05:00 +8°C° 0 mm 3 mps 753 mmHg 82%
    06:00 +8°C° 0 mm 3 mps 753 mmHg 82%
    07:00 +8°C° 0 mm 3 mps 753 mmHg 82%
    08:00 +9°C° 0 mm 3 mps 753 mmHg 75%
    09:00 +11°C° 0 mm 3 mps 753 mmHg 68%
    10:00 +13°C° 0 mm 3 mps 753 mmHg 60%
    11:00 +14°C° 0 mm 3 mps 752 mmHg 56%
    12:00 +16°C° 0 mm 3 mps 751 mmHg 53%
    13:00 +17°C° 0 mm 3 mps 750 mmHg 49%
    14:00 +16°C° 0 mm 2 mps 750 mmHg 49%
    15:00 +16°C° 0 mm 2 mps 749 mmHg 50%
    16:00 +15°C° 0 mm 1 mps 749 mmHg 50%
    17:00 +14°C° 0 mm 1 mps 749 mmHg 56%
    18:00 +12°C° 0 mm 2 mps 749 mmHg 63%
    19:00 +10°C° 0 mm 2 mps 749 mmHg 69%
    20:00 +10°C° 0 mm 2 mps 748 mmHg 70%
    21:00 +10°C° 0 mm 3 mps 748 mmHg 70%
    22:00 +10°C° 0 mm 3 mps 748 mmHg 71%
    23:00 +10°C° 0 mm 3 mps 748 mmHg 70%

    Day after tomorrow, 24 May, Friday

    Time Temperature Precipitation Wind Pressure Humidity
    00:00 +10°C° 0 mm 3 mps 748 mmHg 70%
    01:00 +10°C° 0 mm 3 mps 747 mmHg 69%
    02:00 +10°C° 0 mm 3 mps 747 mmHg 69%
    03:00 +10°C° 0 mm 3 mps 747 mmHg 69%
    04:00 +10°C° 0 mm 4 mps 746 mmHg 69%
    05:00 +10°C° 0 mm 4 mps 746 mmHg 70%
    06:00 +10°C° 0 mm 4 mps 746 mmHg 72%
    07:00 +10°C° 0 mm 4 mps 746 mmHg 74%
    08:00 +11°C° 0 mm 4 mps 746 mmHg 71%
    09:00 +13°C° 0 mm 4 mps 746 mmHg 69%
    10:00 +14°C° 0 mm 4 mps 746 mmHg 66%
    11:00 +15°C° 0 mm 4 mps 745 mmHg 62%
    12:00 +17°C° 0 mm 4 mps 744 mmHg 58%
    13:00 +16°C° 0 mm 5 mps 744 mmHg 54%
    14:00 +17°C° 0 mm 4 mps 743 mmHg 56%
    15:00 +17°C° 0 mm 3 mps 743 mmHg 58%
    16:00 +16°C° 0 mm 2 mps 742 mmHg 60%
    17:00 +15°C° 0.9 mm 1 mps 742 mmHg 69%
    18:00 +14°C° 0.9 mm 1 mps 742 mmHg 77%
    19:00 +13°C° 0.9 mm 1 mps 742 mmHg 86%
    20:00 +11°C° 0.4 mm 0 mps 742 mmHg 87%
    21:00 +11°C° 0.4 mm 0 mps 742 mmHg 88%
    22:00 +11°C° 0.4 mm 0 mps 742 mmHg 90%
    23:00 +12°C° 0 mm 1 mps 742 mmHg 90%

    25 May, Saturday

    Time Temperature Precipitation Wind Pressure Humidity
    00:00 +12°C° 0 mm 1 mps 742 mmHg 89%
    01:00 +12°C° 0 mm 1 mps 741 mmHg 89%
    02:00 +12°C° 0.1 mm 2 mps 741 mmHg 86%
    03:00 +10°C° 0.1 mm 3 mps 742 mmHg 84%
    04:00 +10°C° 0.1 mm 3 mps 742 mmHg 81%
    05:00 +9°C° 0 mm 3 mps 742 mmHg 82%
    06:00 +8°C° 0 mm 2 mps 742 mmHg 84%
    07:00 +7°C° 0 mm 2 mps 742 mmHg 85%
    08:00 +9°C° 0 mm 3 mps 742 mmHg 80%
    09:00 +10°C° 0 mm 3 mps 742 mmHg 75%
    10:00 +11°C° 0 mm 4 mps 742 mmHg 69%
    11:00 +12°C° 0 mm 3 mps 742 mmHg 65%
    12:00 +13°C° 0 mm 3 mps 741 mmHg 60%
    13:00 +14°C° 0 mm 3 mps 741 mmHg 55%
    14:00 +13°C° 0 mm 3 mps 741 mmHg 57%
    15:00 +14°C° 0 mm 2 mps 740 mmHg 59%
    16:00 +14°C° 0 mm 2 mps 740 mmHg 61%
    17:00 +13°C° 0 mm 2 mps 740 mmHg 66%
    18:00 +10°C° 0 mm 2 mps 740 mmHg 71%
    19:00 +9°C° 0 mm 2 mps 739 mmHg 77%
    20:00 +9°C° 0.2 mm 2 mps 739 mmHg 81%
    21:00 +9°C° 0.2 mm 2 mps 739 mmHg 86%
    22:00 +9°C° 0.2 mm 2 mps 739 mmHg 90%
    23:00 +8°C° 0 mm 2 mps 738 mmHg 91%

    26 May, Sunday

    Time Temperature Precipitation Wind Pressure Humidity
    00:00 +8°C° 0 mm 2 mps 738 mmHg 92%
    01:00 +7°C° 0 mm 2 mps 738 mmHg 93%
    02:00 +7°C° 0 mm 2 mps 737 mmHg 93%
    03:00 +6°C° 0 mm 2 mps 737 mmHg 93%
    04:00 +6°C° 0 mm 2 mps 737 mmHg 93%
    05:00 +6°C° 0 mm 2 mps 736 mmHg 92%
    06:00 +6°C° 0 mm 2 mps 736 mmHg 91%
    07:00 +6°C° 0 mm 2 mps 735 mmHg 91%
    08:00 +7°C° 0 mm 2 mps 734 mmHg 87%
    09:00 +8°C° 0 mm 3 mps 734 mmHg 83%
    10:00 +9°C° 0 mm 3 mps 733 mmHg 80%
    11:00 +8°C° 0.7 mm 4 mps 733 mmHg 78%
    12:00 +8°C° 0.7 mm 5 mps 732 mmHg 75%
    13:00 +6°C° 0.7 mm 7 mps 732 mmHg 73%
    14:00 +7°C° 0 mm 6 mps 732 mmHg 72%
    15:00 +7°C° 0 mm 5 mps 732 mmHg 71%
    16:00 +6°C° 0 mm 5 mps 733 mmHg 70%
    17:00 +6°C° 0 mm 5 mps 733 mmHg 70%
    18:00 +6°C° 0 mm 5 mps 734 mmHg 71%
    19:00 +5°C° 0 mm 5 mps 734 mmHg 72%
    20:00 +6°C° 0.1 mm 5 mps 735 mmHg 73%
    21:00 +6°C° 0.1 mm 5 mps 735 mmHg 75%
    22:00 +7°C° 0.1 mm 5 mps 736 mmHg 76%
    23:00 +7°C° 0.1 mm 5 mps 736 mmHg 79%

    27 May, Monday

    Time Temperature Precipitation Wind Pressure Humidity
    00:00 +7°C° 0.1 mm 4 mps 737 mmHg 83%
    01:00 +6°C° 0.1 mm 4 mps 737 mmHg 86%
    02:00 +6°C° 0 mm 4 mps 738 mmHg 83%
    03:00 +6°C° 0 mm 4 mps 738 mmHg 80%
    04:00 +6°C° 0 mm 4 mps 739 mmHg 76%
    05:00 +7°C° 0 mm 3 mps 738 mmHg 78%
    06:00 +7°C° 0 mm 3 mps 738 mmHg 79%
    07:00 +5°C° 0 mm 3 mps 738 mmHg 81%
    08:00 +7°C° 0 mm 4 mps 738 mmHg 75%
    09:00 +8°C° 0 mm 5 mps 737 mmHg 69%
    10:00 +9°C° 0 mm 6 mps 737 mmHg 63%
    11:00 +10°C° 0 mm 7 mps 736 mmHg 59%
    12:00 +12°C° 0 mm 7 mps 734 mmHg 55%
    13:00 +14°C° 0 mm 7 mps 733 mmHg 50%
    14:00 +14°C° 0.1 mm 7 mps 733 mmHg 56%
    15:00 +12°C° 0.1 mm 7 mps 732 mmHg 61%
    16:00 +11°C° 0.1 mm 7 mps 732 mmHg 67%
    17:00 +10°C° 0.6 mm 6 mps 732 mmHg 73%
    18:00 +9°C° 0.6 mm 5 mps 732 mmHg 79%
    19:00 +8°C° 0.6 mm 4 mps 732 mmHg 85%
    20:00 +7°C° 0 mm 4 mps 732 mmHg 84%
    21:00 +6°C° 0 mm 4 mps 731 mmHg 83%
    22:00 +6°C° 0 mm 4 mps 731 mmHg 82%
    23:00 +5°C° 0 mm 4 mps 731 mmHg 81%
    Show more